Location: Glion
(46.4330°N, 6.9246°E)
Time: 15:39:28
(UTC+00:00)

SL-4 R/B - Pass Details

Date: 03 March 2021
Orbit: 428 x 663 km, 51.6° (Epoch: 20 April)

Event Time Altitude Azimuth Distance (km) Brightness Sun altitude
Rises 18:10:24 0° 289° (WNW) 2,510 7.0 -9.2°
Reaches altitude 10° 18:12:44 10° 298° (WNW) 1,600 5.5 -9.6°
Maximum altitude 18:16:03 36° 6° (N) 726 2.6 -10.2°
Enters shadow 18:18:34 15° 70° (ENE) 1,287 3.3 -10.7°
